Regional Weather Roundup
Issued by NWS

Home | Current Version | Previous Version | Text Only | Print | Product List | Glossary On
Versions: 1 2 3 4 5 6 7 8 9 10 11 12 13 14 15 16 17 18 19 20 21 22 23 24 25 26 27 28 29 30 31 32 33 34 35 36 37 38 39 40 41 42 43 44 45 46 47 48 49 50
000
ASUS45 KREV 181410
RWRNV
NEVADA REGIONAL WEATHER ROUNDUP
NATIONAL WEATHER SERVICE RENO NV
700 AM PDT WED OCT 18 2017

NOTE: "FAIR" INDICATES FEW OR NO CLOUDS BELOW 12,000 FEET WITH NO
SIGNIFICANT WEATHER AND/OR OBSTRUCTIONS TO VISIBILITY.

NVZ001-003-004-181500-
WESTERN NEVADA

CITY           SKY/WX    TMP DP  RH WIND       PRES   REMARKS
RENO           PTCLDY    37  21  52 CALM      30.21S
CARSON CITY    FAIR      32  18  55 CALM      30.22F
MINDEN         FAIR      25  18  74 SE5       30.23R
FALLON         PTCLDY    35  20  54 CALM      30.17S
LOVELOCK       PTCLDY    25  10  53 E8        30.18R
HAWTHORNE      CLEAR     41  19  42 CALM      30.19S
$$

NVZ002-CAZ072-073-181500-
NORTHERN AND CENTRAL SIERRA

CITY           SKY/WX    TMP DP  RH WIND       PRES   REMARKS
S. LAKE TAHOE  CLEAR     25  17  72 CALM      30.27S
TRUCKEE        CLEAR     23  16  74 CALM      30.27F
SQUAW VLY 8000   N/A     43  21  42 SW6         N/A
SUSANVILLE     CLEAR     32  19  59 W3        30.19S
BLUE CANYON    CLEAR     58  14  17 E3        30.19F
MAMMOTH LAKES  FAIR      30  23  76 CALM      30.30S
BRIDGEPORT     FAIR      25  14  63 CALM      30.28S
$$

NVZ030-031-036-181500-
NORTHERN NEVADA

CITY           SKY/WX    TMP DP  RH WIND       PRES   REMARKS
ELKO           CLOUDY    23  13  65 CALM      30.24S
WINNEMUCCA     MOCLDY    21   7  54 SE5       30.19S
$$

NVZ035-037-181500-
CENTRAL NEVADA

CITY           SKY/WX    TMP DP  RH WIND       PRES   REMARKS
ELY            MOCLDY    27   1  32 S10       30.26R
EUREKA           N/A     29   9  43 S12       30.25F
$$

NVZ013-014-181500-
SOUTH CENTRAL NEVADA

CITY           SKY/WX    TMP DP  RH WIND       PRES   REMARKS
TONOPAH        MOCLDY    42  10  27 N9        30.21S
$$

NVZ017-020-022-181500-
SOUTHERN NEVADA

CITY           SKY/WX    TMP DP  RH WIND       PRES   REMARKS
LAS VEGAS      MOCLDY    64  18  17 S5        30.01R
N. LAS VEGAS   MOCLDY    61  15  16 N5        30.01R
NELLIS AFB     NOT AVBL
HENDERSON      PTCLDY    58  18  21 S10       30.04R
MERCURY        CLOUDY    56   9  15 NW3       30.06S
$$



USA.gov is the U.S. government's official web portal to all federal, state and local government web resources and services.